Location: Newark
(44.3867°N, 6.6531°E)
Time: 16:07:51
(UTC+00:00)

Envisat - Pass Details

Date: 28 January 2020
Orbit: 764 x 766 km, 98.1° (Epoch: 17 February)

Event Time Altitude Azimuth Distance (km) Brightness Sun altitude
Rises 18:57:10 0° 221° (SW) 3,222 6.8 -25.1°
Reaches altitude 10° 19:01:17 10° 254° (WSW) 2,303 6.4 -25.9°
Maximum altitude 19:02:54 11° 273° (W) 2,206 6.4 -26.2°
Drops below altitude 10° 19:04:32 10° 292° (WNW) 2,308 6.3 -26.5°
Sets 19:08:42 0° 325° (NW) 3,241 6.7 -27.2°
